Аэропорт
Уйташ (URML)

 URML / MCX
ЗЦ Ростов-на-Дону
Ростов-на-Дону (URRV)
Ростов-на-Дону (URRV)
 42.81680, 47.65230  / 12 ft

 URML 190400Z 34008MPS 8000 -SN FEW014 BKN029 M02/M06 Q1020 R32/01//70 TEMPO 34013G18MPS RMK QFE764/1019
 TAF URML 182300Z 1900/1906 34009G14MPS 9999 OVC016 TEMPO 1900/1906 33013G18MPS 6000 -SN SCT004 OVC011
показать схемы

Аэропорт Махачкалы — Уйташ

 

 

Аэропорт Уйташ имени дважды Героя Советского Союза Амет-Хана Султана — аэропорт города Махачкала, столицы Дагестана, основной аэропорт республики. Аэропорт расположен в 4,5 км от города Каспийска и в 16,2 км от ближайшего микрорайона Махачкалы. Аэропорт Уйташ — первого класса, помимо гражданской авиации, используется авиацией ФСБ РФ и МВД РФ.

ВПП 14/32, 2640х45м, асфальтобетон.

Аэродром Уйташ способен принимать самолёты:
Airbus A320, Boeing 757, Ил-86
и все более легкие,
принимает вертолёты всех типов.

Максимальный взлетный вес воздушного судна 150 т.

 

Аэропорт Махачкалы обслуживают авиакомпании SCAT, Газпромавиа, РусЛайн, ВИМ-Авиа, ЮТэйр, Red Wings.



2020 © VATRUS division (Privacy Policy)